• In Uzbekistan
  • List of Countries
  • For 7 days
  • Water Temperature
  • Satellite Maps
  • Weather Map
  • Weather Widgets
  • user-avatar
    Login

    Hourly Weather Sabha

    Today, 22 September, Saturday

    Time Temperature Precipitation Wind Pressure Humidity
    00:00 +30°C° 0 mm 4 mps 724 mmHg 21%
    01:00 +30°C° 0 mm 5 mps 724 mmHg 22%
    02:00 +29°C° 0 mm 5 mps 724 mmHg 24%
    03:00 +29°C° 0 mm 5 mps 724 mmHg 26%
    04:00 +28°C° 0 mm 5 mps 724 mmHg 27%
    05:00 +28°C° 0 mm 5 mps 724 mmHg 28%
    06:00 +28°C° 0 mm 5 mps 725 mmHg 28%
    07:00 +28°C° 0 mm 5 mps 725 mmHg 29%
    08:00 +30°C° 0 mm 5 mps 725 mmHg 26%
    09:00 +33°C° 0 mm 5 mps 726 mmHg 23%
    10:00 +35°C° 0 mm 5 mps 726 mmHg 20%
    11:00 +35°C° 0 mm 4 mps 726 mmHg 19%
    12:00 +36°C° 0 mm 4 mps 726 mmHg 17%
    13:00 +37°C° 0 mm 3 mps 725 mmHg 16%
    14:00 +37°C° 0 mm 3 mps 725 mmHg 15%
    15:00 +37°C° 0 mm 3 mps 725 mmHg 15%
    16:00 +38°C° 0 mm 3 mps 724 mmHg 14%
    17:00 +37°C° 0 mm 3 mps 724 mmHg 15%
    18:00 +36°C° 0 mm 3 mps 725 mmHg 16%
    19:00 +35°C° 0 mm 3 mps 725 mmHg 17%
    20:00 +34°C° 0 mm 3 mps 725 mmHg 18%
    21:00 +34°C° 0 mm 4 mps 726 mmHg 19%
    22:00 +33°C° 0 mm 4 mps 726 mmHg 21%
    23:00 +32°C° 0 mm 5 mps 726 mmHg 23%

    Tomorrow, 23 September, Sunday

    Time Temperature Precipitation Wind Pressure Humidity
    00:00 +32°C° 0 mm 5 mps 726 mmHg 26%
    01:00 +30°C° 0 mm 6 mps 726 mmHg 28%
    02:00 +30°C° 0 mm 6 mps 726 mmHg 30%
    03:00 +29°C° 0 mm 6 mps 726 mmHg 31%
    04:00 +29°C° 0 mm 5 mps 726 mmHg 32%
    05:00 +29°C° 0 mm 5 mps 726 mmHg 32%
    06:00 +29°C° 0 mm 5 mps 726 mmHg 33%
    07:00 +29°C° 0 mm 5 mps 726 mmHg 33%
    08:00 +32°C° 0 mm 6 mps 727 mmHg 30%
    09:00 +33°C° 0 mm 6 mps 727 mmHg 26%
    10:00 +35°C° 0 mm 7 mps 728 mmHg 22%
    11:00 +36°C° 0 mm 6 mps 727 mmHg 20%
    12:00 +38°C° 0 mm 6 mps 727 mmHg 18%
    13:00 +39°C° 0 mm 5 mps 726 mmHg 16%
    14:00 +39°C° 0 mm 5 mps 726 mmHg 16%
    15:00 +39°C° 0 mm 5 mps 726 mmHg 15%
    16:00 +39°C° 0 mm 5 mps 725 mmHg 15%
    17:00 +37°C° 0 mm 4 mps 726 mmHg 16%
    18:00 +36°C° 0 mm 4 mps 726 mmHg 17%
    19:00 +35°C° 0 mm 4 mps 726 mmHg 18%
    20:00 +35°C° 0 mm 5 mps 726 mmHg 21%
    21:00 +34°C° 0 mm 5 mps 727 mmHg 23%
    22:00 +33°C° 0 mm 6 mps 727 mmHg 25%
    23:00 +33°C° 0 mm 6 mps 727 mmHg 27%

    Day after tomorrow, 24 September, Monday

    Time Temperature Precipitation Wind Pressure Humidity
    00:00 +32°C° 0 mm 6 mps 726 mmHg 29%
    01:00 +30°C° 0 mm 5 mps 726 mmHg 32%
    02:00 +30°C° 0 mm 5 mps 726 mmHg 33%
    03:00 +29°C° 0 mm 4 mps 726 mmHg 34%
    04:00 +29°C° 0 mm 4 mps 726 mmHg 36%
    05:00 +29°C° 0 mm 4 mps 726 mmHg 36%
    06:00 +29°C° 0 mm 4 mps 726 mmHg 35%
    07:00 +29°C° 0 mm 4 mps 726 mmHg 35%
    08:00 +32°C° 0 mm 4 mps 727 mmHg 31%
    09:00 +33°C° 0 mm 5 mps 727 mmHg 28%
    10:00 +35°C° 0 mm 5 mps 728 mmHg 24%
    11:00 +36°C° 0 mm 4 mps 727 mmHg 22%
    12:00 +37°C° 0 mm 4 mps 727 mmHg 20%
    13:00 +38°C° 0 mm 3 mps 726 mmHg 19%
    14:00 +38°C° 0 mm 4 mps 726 mmHg 18%
    15:00 +38°C° 0 mm 4 mps 725 mmHg 18%
    16:00 +38°C° 0 mm 4 mps 725 mmHg 17%
    17:00 +37°C° 0 mm 4 mps 725 mmHg 19%
    18:00 +36°C° 0 mm 4 mps 725 mmHg 20%
    19:00 +36°C° 0 mm 3 mps 725 mmHg 22%
    20:00 +35°C° 0 mm 3 mps 725 mmHg 23%
    21:00 +34°C° 0 mm 3 mps 726 mmHg 24%
    22:00 +34°C° 0 mm 3 mps 726 mmHg 25%
    23:00 +33°C° 0 mm 3 mps 725 mmHg 26%

    25 September, Tuesday

    Time Temperature Precipitation Wind Pressure Humidity
    00:00 +33°C° 0 mm 3 mps 725 mmHg 28%
    01:00 +31°C° 0 mm 3 mps 725 mmHg 29%
    02:00 +30°C° 0 mm 3 mps 724 mmHg 30%
    03:00 +30°C° 0 mm 3 mps 724 mmHg 32%
    04:00 +29°C° 0 mm 3 mps 724 mmHg 33%
    05:00 +29°C° 0 mm 3 mps 724 mmHg 33%
    06:00 +29°C° 0 mm 3 mps 725 mmHg 33%
    07:00 +29°C° 0 mm 3 mps 725 mmHg 33%
    08:00 +31°C° 0 mm 3 mps 725 mmHg 30%
    09:00 +33°C° 0 mm 3 mps 726 mmHg 27%
    10:00 +35°C° 0 mm 3 mps 726 mmHg 24%
    11:00 +36°C° 0 mm 2 mps 726 mmHg 23%
    12:00 +36°C° 0 mm 1 mps 725 mmHg 22%
    13:00 +34°C° 0 mm 0 mps 725 mmHg 20%
    14:00 +37°C° 0 mm 1 mps 724 mmHg 20%
    15:00 +38°C° 0 mm 2 mps 724 mmHg 19%
    16:00 +38°C° 0 mm 2 mps 723 mmHg 18%
    17:00 +38°C° 0 mm 2 mps 724 mmHg 19%
    18:00 +37°C° 0 mm 2 mps 724 mmHg 20%
    19:00 +36°C° 0 mm 2 mps 724 mmHg 21%
    20:00 +35°C° 0 mm 2 mps 724 mmHg 22%
    21:00 +35°C° 0 mm 2 mps 724 mmHg 23%
    22:00 +34°C° 0 mm 2 mps 724 mmHg 24%
    23:00 +34°C° 0 mm 3 mps 724 mmHg 26%

    26 September, Wednesday

    Time Temperature Precipitation Wind Pressure Humidity
    00:00 +33°C° 0 mm 4 mps 724 mmHg 29%
    01:00 +32°C° 0 mm 5 mps 724 mmHg 31%
    02:00 +32°C° 0 mm 5 mps 724 mmHg 32%
    03:00 +30°C° 0 mm 5 mps 724 mmHg 34%
    04:00 +30°C° 0 mm 5 mps 724 mmHg 35%
    05:00 +30°C° 0 mm 5 mps 724 mmHg 37%
    06:00 +29°C° 0 mm 5 mps 724 mmHg 38%
    07:00 +29°C° 0 mm 5 mps 725 mmHg 39%
    08:00 +32°C° 0 mm 4 mps 725 mmHg 36%
    09:00 +33°C° 0 mm 4 mps 725 mmHg 33%
    10:00 +34°C° 0 mm 4 mps 725 mmHg 29%
    11:00 +35°C° 0 mm 3 mps 725 mmHg 27%
    12:00 +36°C° 0 mm 2 mps 725 mmHg 26%
    13:00 +36°C° 0 mm 1 mps 724 mmHg 24%
    14:00 +37°C° 0 mm 3 mps 724 mmHg 25%
    15:00 +36°C° 0 mm 5 mps 724 mmHg 26%
    16:00 +36°C° 0 mm 7 mps 723 mmHg 26%
    17:00 +35°C° 0 mm 7 mps 724 mmHg 30%
    18:00 +34°C° 0 mm 6 mps 724 mmHg 33%
    19:00 +33°C° 0 mm 6 mps 724 mmHg 37%
    20:00 +33°C° 0 mm 6 mps 724 mmHg 38%
    21:00 +32°C° 0 mm 6 mps 725 mmHg 39%
    22:00 +32°C° 0 mm 6 mps 725 mmHg 39%
    23:00 +32°C° 0 mm 6 mps 725 mmHg 40%

    27 September, Thursday

    Time Temperature Precipitation Wind Pressure Humidity
    00:00 +30°C° 0 mm 5 mps 725 mmHg 40%
    01:00 +30°C° 0 mm 5 mps 725 mmHg 40%
    02:00 +29°C° 0 mm 5 mps 724 mmHg 42%
    03:00 +29°C° 0 mm 6 mps 724 mmHg 43%
    04:00 +28°C° 0 mm 6 mps 724 mmHg 44%
    05:00 +28°C° 0 mm 6 mps 724 mmHg 46%
    06:00 +27°C° 0 mm 7 mps 725 mmHg 47%
    07:00 +27°C° 0 mm 7 mps 725 mmHg 48%
    08:00 +28°C° 0 mm 7 mps 725 mmHg 45%
    09:00 +30°C° 0 mm 7 mps 725 mmHg 41%
    10:00 +32°C° 0 mm 7 mps 726 mmHg 38%
    11:00 +33°C° 0 mm 6 mps 725 mmHg 35%
    12:00 +34°C° 0 mm 5 mps 725 mmHg 33%
    13:00 +35°C° 0 mm 4 mps 724 mmHg 30%
    14:00 +35°C° 0 mm 4 mps 724 mmHg 29%
    15:00 +35°C° 0 mm 4 mps 724 mmHg 28%
    16:00 +35°C° 0 mm 5 mps 723 mmHg 26%
    17:00 +34°C° 0.1 mm 5 mps 724 mmHg 27%
    18:00 +34°C° 0.1 mm 5 mps 724 mmHg 28%
    19:00 +33°C° 0.1 mm 5 mps 724 mmHg 28%
    20:00 +32°C° 0 mm 6 mps 724 mmHg 30%
    21:00 +30°C° 0 mm 7 mps 725 mmHg 31%
    22:00 +31°C° 0 mm 8 mps 725 mmHg 33%
    23:00 +29°C° 0 mm 8 mps 725 mmHg 33%
    Show more